Temperature
10 9 8 8 9 9 10 10 10 10 9 9 8 8 7 7 6 6 5 4 4 3 3 3 3 3 3 3 4 4 4 4 4 4 4 4 4 4 4 5 5 5 5 5
9 8 8 9 9 9 9 9 9 9 9 8 7 7 7 6 5 5 4 4 3 2 2 2 2 2 2 2 3 3 3 3 3 3 3 3 3 4 4 4 4 4 4 4
8 7 8 8 8 8 8 8 7 7 7 7 6 6 6 5 5 4 4 3 2 2 1 1 1 1 1 1 2 2 2 3 3 3 3 3 3 3 3 3 3 3 3 3
7 7 7 7 7 6 7 7 7 6 5 5 6 5 6 4 3 3 3 2 2 1 0 -0 -0 0 0 1 1 1 1 2 2 2 2 2 2 2 2 2 2 2 2 3
6 6 6 6 6 6 5 6 6 6 5 5 5 4 4 4 3 2 2 2 1 0 -0 -1 -1 -1 -1 -1 -0 0 0 1 1 1 1 1 1 1 1 1 1 2 2 2
5 6 5 5 5 5 5 5 5 5 4 3 5 4 4 3 3 2 1 1 0 -0 -1 -1 -1 -1 -2 -1 -1 -1 -0 0 0 1 0 0 0 1 1 1 1 1 1 1
5 5 5 5 4 5 4 4 4 4 3 4 4 4 2 2 1 1 0 -0 -1 -1 -2 -2 -2 -3 -2 -2 -2 -2 -1 -1 -1 -0 -0 -0 -0 -0 0 0 0 0 0 0
6 5 4 4 4 3 4 4 3 3 4 4 3 2 1 0 0 0 -0 -1 -2 -2 -3 -3 -3 -3 -3 -3 -3 -3 -2 -2 -2 -1 -1 -1 -1 -1 -1 -1 -1 -1 -0 -0
4 4 3 3 3 3 3 3 3 2 2 2 3 2 1 0 -1 -1 -1 -2 -2 -3 -3 -3 -4 -4 -4 -4 -4 -3 -3 -3 -3 -2 -2 -2 -2 -2 -1 -1 -1 -1 -1 -1
4 3 3 2 2 2 2 3 2 2 1 2 3 3 1 -1 -2 -2 -2 -2 -3 -3 -4 -4 -4 -4 -4 -4 -4 -4 -4 -4 -3 -3 -3 -3 -3 -2 -2 -2 -2 -2 -2 -2
3 2 2 1 1 1 1 1 1 2 2 1 1 1 0 -1 -1 -2 -3 -3 -3 -4 -4 -5 -5 -5 -5 -5 -5 -5 -5 -4 -4 -4 -4 -3 -3 -3 -3 -3 -3 -2 -2 -2
2 2 1 1 0 0 1 1 1 0 0 1 0 -0 -1 -2 -2 -2 -3 -3 -4 -5 -5 -5 -5 -5 -5 -5 -5 -5 -5 -5 -5 -5 -5 -4 -4 -4 -4 -4 -3 -3 -3 -3
1 1 0 1 -0 -1 -1 -0 -1 -1 -1 -1 -1 -1 -2 -2 -3 -3 -3 -4 -5 -5 -5 -6 -6 -6 -6 -6 -6 -6 -6 -6 -6 -5 -5 -5 -5 -5 -5 -5 -4 -4 -4 -4
1 -1 -0 1 0 -1 -2 -2 -2 -2 -2 -2 -2 -2 -3 -3 -4 -4 -4 -4 -5 -6 -6 -6 -7 -7 -6 -6 -7 -6 -6 -6 -6 -6 -6 -6 -6 -6 -6 -5 -5 -5 -5 -4
-0 -1 -1 -1 -1 -1 -2 -2 -3 -4 -3 -3 -3 -3 -3 -4 -4 -4 -5 -5 -6 -6 -7 -7 -7 -7 -7 -7 -7 -7 -7 -7 -7 -7 -7 -7 -7 -7 -6 -6 -6 -6 -5 -5
-1 -2 -2 -2 -1 -2 -2 -2 -3 -4 -4 -4 -4 -4 -4 -4 -5 -5 -6 -6 -7 -7 -7 -8 -8 -8 -8 -8 -8 -8 -8 -8 -8 -7 -7 -7 -7 -7 -7 -7 -7 -6 -6 -6
-2 -2 -2 -2 -2 -2 -3 -4 -4 -5 -5 -5 -5 -5 -5 -6 -6 -6 -6 -7 -7 -7 -8 -8 -8 -8 -8 -8 -8 -8 -8 -8 -8 -8 -8 -8 -8 -8 -8 -8 -7 -7 -7 -7
-3 -3 -2 -2 -2 -3 -2 -5 -4 -5 -6 -6 -6 -6 -6 -6 -6 -7 -7 -7 -8 -8 -8 -8 -8 -9 -9 -9 -9 -9 -9 -9 -9 -8 -8 -8 -8 -8 -8 -8 -8 -8 -8 -7
-3 -3 -3 -3 -3 -2 -3 -5 -6 -6 -6 -7 -7 -7 -7 -7 -7 -7 -7 -7 -8 -8 -8 -9 -9 -9 -9 -9 -9 -9 -9 -9 -9 -9 -9 -9 -9 -9 -9 -9 -9 -9 -8 -8
-4 -4 -4 -3 -3 -3 -3 -6 -6 -6 -6 -7 -7 -8 -8 -8 -8 -8 -8 -8 -9 -9 -9 -9 -9 -10 -10 -10 -10 -10 -10 -10 -10 -10 -10 -10 -10 -9 -9 -9 -9 -9 -9 -9
-5 -5 -4 -4 -4 -4 -7 -7 -6 -6 -5 -7 -7 -7 -8 -9 -9 -8 -9 -9 -9 -9 -10 -10 -10 -10 -10 -10 -10 -10 -10 -10 -10 -10 -10 -10 -10 -10 -10 -10 -10 -10 -10 -9
-5 -5 -5 -4 -4 -4 -8 -8 -8 -7 -7 -7 -8 -8 -9 -9 -9 -9 -10 -10 -10 -10 -10 -10 -11 -11 -11 -11 -11 -11 -11 -11 -11 -11 -11 -10 -10 -10 -10 -10 -10 -10 -10 -10
-6 -6 -6 -6 -6 -7 -8 -8 -7 -7 -8 -8 -8 -9 -9 -9 -10 -10 -10 -10 -11 -11 -11 -11 -11 -11 -11 -11 -12 -12 -11 -11 -11 -11 -11 -11 -11 -11 -11 -11 -11 -10 -11 -11
-7 -7 -7 -7 -8 -7 -7 -8 -8 -8 -8 -9 -9 -9 -10 -10 -10 -10 -11 -11 -11 -11 -11 -11 -11 -11 -11 -12 -12 -12 -12 -12 -12 -12 -11 -11 -11 -11 -11 -11 -11 -11 -11 -11
-7 -8 -8 -8 -9 -8 -8 -8 -8 -8 -9 -9 -9 -10 -10 -10 -10 -11 -11 -11 -11 -11 -11 -12 -12 -12 -12 -12 -12 -12 -12 -12 -12 -12 -12 -12 -12 -12 -11 -12 -12 -12 -12 -12
-9 -9 -9 -8 -8 -9 -8 -8 -9 -9 -9 -9 -10 -10 -10 -10 -11 -11 -11 -11 -11 -11 -12 -12 -12 -12 -12 -12 -12 -12 -12 -12 -12 -12 -12 -12 -12 -12 -12 -12 -12 -12 -12 -12
Wind_Speed
2 2 2 2 3 4 5 5 7 4 1 3 6 6 4 3 3 1 2 2 2 3 4 5 4 4 4 3 3 3 2 2 2 1 1 1 1 1 1 2 2 2 2 1
1 2 2 2 4 5 6 7 6 3 1 2 5 7 4 3 3 2 2 2 2 3 4 4 4 4 4 4 4 3 2 2 2 1 1 0 1 0 0 1 2 2 1 1
2 1 1 2 2 3 5 4 5 4 6 5 5 7 5 3 3 3 2 3 3 3 3 4 4 4 4 4 4 3 3 3 2 2 1 1 2 1 1 1 1 1 1 1
1 1 1 1 1 3 4 2 4 4 4 4 3 5 3 4 3 2 1 2 2 3 4 4 5 5 4 4 4 4 3 3 3 2 2 1 1 1 2 1 1 2 2 1
0 1 1 1 1 2 2 4 5 6 6 6 5 5 3 4 3 3 2 2 3 4 4 4 5 5 5 5 4 4 4 4 4 3 2 2 1 1 1 1 2 2 2 1
0 2 2 2 2 1 2 3 4 4 3 5 5 5 3 2 3 3 3 3 3 4 4 5 5 5 6 6 5 5 5 5 5 4 3 2 2 2 2 2 2 2 2 2
2 2 2 2 1 1 1 1 1 2 3 5 1 3 3 3 4 4 5 4 4 4 4 4 5 6 6 7 6 6 6 6 5 5 4 3 3 2 2 2 2 2 2 2
2 2 3 2 1 0 1 0 1 3 4 3 2 5 1 4 5 6 6 5 4 4 4 4 4 5 5 6 7 7 6 6 6 5 4 3 3 2 2 2 2 3 3 3
3 1 3 3 3 1 1 2 1 1 3 4 5 3 2 3 4 4 4 4 4 3 3 4 4 4 5 5 6 7 6 6 7 7 5 4 3 3 3 3 3 3 3 4
3 3 0 1 0 1 2 1 1 2 2 5 5 4 2 3 2 1 2 2 2 3 4 4 4 4 4 4 5 6 6 6 6 7 6 5 4 4 3 3 4 4 4 5
2 1 1 1 2 2 1 2 2 3 3 3 4 3 2 3 3 3 2 2 2 3 3 3 4 4 3 4 5 5 6 6 6 7 7 6 5 5 4 4 4 4 5 5
2 1 3 1 2 3 0 2 3 3 4 3 4 4 2 4 3 3 2 2 2 2 2 3 3 3 4 4 5 5 6 6 6 7 7 6 6 6 6 5 5 5 5 5
1 0 2 1 0 1 1 2 2 1 1 4 4 4 1 2 2 2 2 1 1 1 2 2 3 3 4 4 5 5 5 6 6 6 6 6 6 6 6 7 6 6 6 6
1 2 4 5 2 1 3 3 3 3 4 5 7 6 4 2 2 2 1 1 1 1 2 3 3 3 4 4 4 5 6 6 6 7 6 6 6 7 7 7 7 7 7 6
0 3 4 5 5 4 6 6 6 7 7 7 6 6 7 4 3 2 1 1 1 2 3 3 3 3 4 4 5 5 6 6 7 7 7 6 6 6 7 7 7 7 7 7
1 2 2 4 5 4 8 7 7 7 7 8 8 9 6 3 1 2 2 2 2 3 3 3 3 4 4 4 5 6 6 6 7 7 7 7 7 7 7 7 7 7 7 7
2 2 2 4 2 5 7 5 6 4 4 5 7 6 2 2 2 2 2 3 4 4 3 3 4 4 4 5 5 5 6 6 6 7 7 7 7 7 7 8 7 7 7 7
2 2 2 3 3 5 4 1 3 5 3 4 4 3 2 3 3 3 2 2 3 3 3 3 4 4 4 4 4 5 5 6 6 7 7 7 7 7 8 7 7 7 7 7
1 3 2 2 4 6 2 1 2 3 4 3 5 4 4 3 3 3 2 1 2 2 2 3 3 3 4 4 5 5 5 6 6 7 7 7 7 8 8 8 8 7 7 7
1 1 2 3 3 5 3 1 1 1 3 1 1 2 2 2 2 3 2 3 3 3 2 3 3 4 4 4 4 5 6 6 7 7 8 7 7 7 7 8 8 7 7 7
2 3 4 5 5 5 1 1 1 2 3 1 1 1 1 2 3 3 3 3 2 3 3 3 3 3 4 4 4 4 5 6 7 7 8 8 7 7 7 7 7 6 7 7
5 4 4 3 5 6 1 3 3 3 1 1 1 2 2 3 3 3 3 3 3 3 3 3 3 4 4 4 4 5 6 6 6 7 7 7 7 7 7 6 6 6 6 7
3 3 2 4 4 1 3 3 1 0 1 2 2 3 2 3 4 4 4 3 3 3 3 3 3 4 4 4 4 5 6 6 6 7 7 7 8 7 7 6 6 6 5 5
2 1 1 2 3 1 2 1 1 1 2 3 2 3 3 4 4 4 4 4 3 3 3 3 3 4 5 4 5 5 6 6 6 7 7 7 7 7 6 6 5 5 5 5
2 2 2 3 3 2 1 1 1 2 2 3 3 3 3 3 4 4 4 4 3 4 3 3 3 4 5 5 5 6 5 5 6 6 7 7 7 7 6 6 5 6 5 5
2 3 3 4 3 2 3 1 1 2 3 3 3 4 3 3 4 4 4 3 3 4 3 3 4 5 5 5 6 6 5 5 5 6 6 6 6 6 6 6 6 9 9 11
Wind_Direction
200 210 210 233 244 284 297 278 273 277 276 254 249 256 230 177 167 152 126 109 86 66 67 74 62 53 53 51 46 45 55 51 49 35 32 35 22 359 22 24 41 35 34 56
218 229 256 281 275 273 280 278 281 298 348 298 283 271 236 187 160 159 153 124 99 73 57 56 64 52 41 37 30 28 28 31 27 7 345 308 278 284 303 16 30 23 5 6
206 7 323 280 305 276 267 272 293 311 319 268 278 271 205 166 143 121 82 79 76 76 65 54 47 51 36 27 23 20 18 13 1 11 21 24 15 6 17 9 347 339 339 353
244 296 329 276 301 298 259 322 301 298 297 270 221 278 218 158 147 137 117 89 76 62 55 45 38 32 27 17 16 16 13 18 7 15 26 24 357 320 314 301 299 312 314 307
46 40 327 286 317 313 308 332 289 272 266 284 242 245 258 153 187 201 171 99 80 66 56 45 35 25 20 19 20 15 13 12 9 6 6 356 343 323 327 333 328 336 323 315
248 54 32 13 345 289 316 302 274 259 247 262 227 212 265 179 189 172 137 96 75 60 54 41 28 26 23 21 20 15 10 8 9 4 358 357 344 338 337 332 323 328 321 310
219 173 104 33 332 219 316 357 329 286 230 241 157 210 242 79 62 96 117 96 75 60 50 38 27 21 18 14 12 10 7 1 2 0 352 346 337 324 303 296 293 308 306 301
270 232 130 73 48 316 254 207 190 243 266 301 291 232 202 92 72 73 85 82 68 58 43 35 27 21 16 9 6 3 2 356 353 351 342 342 342 331 312 310 299 285 281 272
322 282 80 57 36 13 232 214 325 313 289 277 247 199 108 84 75 77 81 76 67 53 40 30 24 21 16 5 360 357 358 355 351 347 340 342 342 331 317 314 305 290 290 290
335 302 119 105 167 6 337 342 163 187 249 266 265 233 210 181 191 139 96 74 58 42 31 22 16 13 11 1 354 356 357 354 349 347 341 340 337 329 317 311 306 300 292 286
335 277 253 187 202 211 169 211 232 241 243 244 274 271 32 129 146 151 140 96 62 40 19 9 2 360 1 0 359 357 356 352 349 347 343 342 337 332 325 313 307 303 294 281
5 308 269 220 79 33 44 228 191 204 250 233 259 266 41 85 101 111 109 89 63 32 12 3 357 357 357 357 356 355 352 348 345 342 340 336 332 330 328 324 318 313 303 291
52 220 291 267 310 357 293 252 227 192 259 240 243 253 68 77 87 92 101 58 20 355 354 357 356 354 350 350 348 345 343 341 340 338 335 333 332 333 331 327 321 319 311 305
47 219 213 237 273 211 252 243 204 186 219 244 237 256 287 300 326 348 353 319 323 331 341 347 348 339 339 342 342 339 339 338 337 336 331 329 330 329 325 323 321 318 313 306
114 245 242 266 283 273 252 242 207 209 223 234 257 267 281 292 307 320 342 351 344 335 334 334 330 326 334 342 343 341 337 337 335 329 324 323 323 325 325 323 321 319 315 310
221 251 291 274 256 264 274 258 229 227 237 246 267 277 279 289 332 336 329 317 300 303 308 313 322 331 334 337 336 336 332 331 331 325 323 325 327 327 325 322 320 320 318 314
192 200 256 270 274 300 273 246 209 205 217 212 236 250 305 330 309 285 287 292 292 294 302 312 322 324 328 332 336 332 327 328 328 326 325 328 329 327 324 323 324 320 316 311
172 192 234 280 315 256 244 68 160 188 231 219 239 281 308 298 304 307 288 278 295 308 320 323 325 327 329 333 336 328 326 325 327 326 325 329 329 324 321 322 320 317 314 312
193 190 235 247 266 268 242 170 139 185 272 237 236 275 309 327 320 319 346 4 320 318 319 319 323 321 323 327 327 327 327 329 329 327 325 325 323 320 320 320 317 315 314 311
79 143 216 236 249 253 247 133 75 108 278 332 184 252 291 342 297 292 12 16 360 352 345 335 330 327 324 323 330 330 325 327 324 321 318 316 314 313 313 312 310 311 310 306
171 200 220 236 245 260 252 207 137 178 256 359 20 299 299 259 254 292 334 335 334 335 330 328 322 319 317 321 328 320 320 319 317 318 318 317 315 311 307 307 309 311 312 314
182 193 205 210 230 252 133 127 176 220 5 18 347 323 298 284 301 311 315 315 321 323 321 322 318 314 314 318 320 316 313 312 318 319 318 317 316 313 313 312 311 312 314 316
193 201 198 198 217 170 150 166 207 57 305 309 315 310 298 290 290 298 300 295 296 299 303 308 305 307 311 316 319 309 307 314 317 319 318 316 316 315 314 311 312 314 315 317
216 208 208 258 259 232 189 197 295 290 275 293 298 291 282 276 278 284 290 292 293 293 294 298 303 306 309 313 313 302 306 311 313 314 314 314 316 317 318 315 313 313 314 313
229 172 216 246 270 300 244 210 274 300 313 309 304 290 283 275 276 277 281 285 288 298 300 302 295 295 299 307 307 308 311 311 311 310 310 314 316 314 316 315 308 306 295 299
195 190 206 233 230 227 268 307 295 283 289 293 297 298 290 271 275 283 281 282 287 293 295 297 296 297 300 304 303 304 306 306 307 311 313 314 314 313 314 313 313 313 310 311
Height
1486 1489 1491 1491 1490 1490 1489 1488 1488 1487 1489 1490 1492 1493 1494 1495 1497 1499 1501 1503 1504 1505 1505 1504 1504 1504 1504 1505 1505 1505 1506 1506 1506 1507 1507 1508 1509 1510 1510 1511 1512 1512 1513 1513
1488 1491 1491 1490 1490 1490 1489 1490 1489 1489 1489 1492 1492 1492 1492 1494 1496 1499 1500 1502 1503 1504 1503 1503 1503 1503 1503 1503 1503 1503 1503 1504 1504 1504 1505 1505 1506 1506 1507 1508 1509 1509 1510 1510
1489 1492 1490 1490 1491 1491 1491 1493 1493 1495 1494 1492 1494 1492 1491 1492 1495 1498 1500 1501 1502 1503 1503 1503 1502 1502 1502 1501 1501 1501 1501 1501 1502 1502 1502 1503 1503 1504 1504 1505 1505 1506 1507 1507
1491 1492 1491 1491 1493 1494 1493 1494 1495 1496 1499 1496 1493 1498 1490 1492 1495 1497 1499 1500 1502 1502 1502 1502 1501 1501 1501 1500 1500 1500 1499 1499 1499 1499 1499 1500 1500 1500 1500 1501 1502 1502 1503 1504
1492 1492 1493 1494 1495 1496 1496 1495 1495 1495 1497 1498 1494 1498 1493 1492 1496 1498 1499 1500 1501 1502 1502 1502 1501 1501 1500 1499 1499 1498 1497 1497 1497 1497 1497 1497 1497 1498 1498 1498 1498 1499 1500 1500
1493 1493 1494 1495 1496 1496 1496 1496 1495 1495 1498 1503 1492 1496 1494 1494 1494 1496 1498 1500 1501 1502 1502 1501 1501 1500 1499 1498 1497 1496 1495 1495 1494 1494 1494 1494 1495 1495 1495 1495 1495 1495 1496 1496
1493 1494 1495 1496 1497 1497 1497 1500 1502 1502 1502 1496 1491 1495 1498 1496 1495 1495 1498 1500 1501 1501 1501 1501 1500 1499 1498 1496 1495 1494 1493 1493 1492 1492 1492 1492 1492 1492 1491 1491 1491 1492 1492 1492
1492 1495 1496 1497 1498 1499 1499 1500 1507 1509 1501 1494 1496 1497 1498 1497 1497 1497 1498 1500 1501 1501 1501 1501 1500 1498 1497 1495 1494 1493 1492 1491 1490 1489 1489 1489 1489 1488 1488 1488 1488 1488 1488 1488
1496 1495 1498 1499 1499 1500 1499 1501 1501 1506 1506 1508 1495 1493 1498 1498 1498 1499 1500 1500 1501 1501 1501 1500 1499 1498 1496 1495 1493 1492 1490 1489 1488 1487 1487 1486 1486 1485 1485 1485 1485 1484 1484 1484
1499 1501 1499 1500 1501 1502 1502 1502 1505 1508 1510 1505 1490 1489 1495 1500 1500 1500 1500 1500 1501 1501 1500 1499 1498 1497 1496 1494 1492 1491 1489 1487 1486 1485 1484 1483 1483 1482 1481 1481 1481 1480 1480 1480
1500 1504 1502 1502 1504 1503 1505 1505 1504 1504 1502 1506 1502 1499 1497 1497 1497 1499 1500 1500 1501 1500 1500 1499 1497 1496 1494 1493 1491 1489 1487 1485 1483 1482 1481 1480 1479 1478 1478 1477 1476 1476 1476 1475
1501 1503 1503 1502 1503 1504 1503 1503 1505 1510 1507 1504 1506 1506 1498 1497 1497 1498 1499 1500 1500 1499 1498 1497 1496 1494 1493 1491 1489 1487 1485 1483 1481 1479 1478 1477 1476 1475 1474 1473 1473 1472 1472 1471
1503 1505 1507 1501 1506 1507 1506 1505 1505 1507 1509 1508 1507 1505 1499 1498 1498 1498 1499 1499 1498 1498 1497 1495 1494 1493 1491 1489 1487 1485 1483 1481 1479 1477 1476 1474 1473 1471 1470 1469 1469 1468 1467 1466
1502 1506 1507 1505 1501 1505 1507 1506 1506 1509 1511 1508 1503 1500 1500 1498 1498 1498 1498 1497 1497 1497 1495 1494 1492 1491 1489 1487 1485 1483 1481 1479 1477 1475 1473 1471 1470 1468 1467 1466 1465 1464 1463 1462
1503 1506 1504 1503 1501 1502 1503 1504 1506 1509 1507 1507 1502 1501 1498 1497 1497 1497 1496 1496 1495 1495 1493 1492 1490 1489 1487 1485 1483 1481 1479 1477 1475 1473 1471 1469 1467 1466 1464 1462 1461 1460 1459 1458
1503 1505 1504 1504 1500 1500 1500 1499 1501 1504 1505 1504 1502 1501 1496 1496 1496 1495 1495 1494 1493 1493 1491 1490 1488 1487 1485 1483 1481 1479 1477 1475 1473 1471 1469 1467 1465 1463 1461 1459 1457 1456 1455 1454
1503 1505 1505 1501 1499 1499 1499 1497 1499 1501 1501 1502 1502 1498 1495 1495 1494 1494 1493 1492 1491 1490 1489 1488 1486 1485 1483 1481 1479 1476 1474 1472 1470 1468 1466 1464 1462 1460 1458 1456 1454 1452 1451 1450
1503 1504 1504 1503 1503 1505 1495 1494 1494 1497 1498 1497 1496 1495 1494 1494 1493 1492 1491 1490 1489 1488 1487 1486 1484 1482 1480 1478 1476 1474 1472 1470 1467 1465 1463 1461 1459 1457 1455 1453 1451 1449 1448 1446
1500 1503 1503 1503 1503 1495 1493 1495 1495 1497 1497 1494 1494 1494 1493 1492 1491 1490 1489 1488 1488 1487 1485 1484 1482 1480 1478 1476 1474 1471 1469 1467 1464 1462 1460 1458 1456 1454 1452 1450 1448 1446 1444 1442
1501 1502 1505 1501 1501 1498 1493 1495 1494 1497 1497 1493 1492 1492 1492 1492 1493 1490 1488 1487 1486 1485 1483 1481 1479 1477 1475 1473 1471 1469 1466 1464 1462 1460 1458 1456 1454 1451 1449 1447 1445 1443 1441 1439
1504 1504 1505 1502 1501 1494 1496 1494 1495 1499 1494 1493 1491 1491 1491 1491 1491 1489 1486 1485 1483 1482 1480 1479 1477 1474 1472 1470 1468 1466 1463 1461 1459 1457 1455 1453 1451 1449 1447 1444 1442 1440 1438 1436
1500 1501 1502 1500 1500 1497 1496 1494 1496 1495 1492 1491 1490 1490 1489 1488 1487 1485 1484 1482 1480 1479 1477 1476 1474 1471 1470 1468 1465 1463 1461 1459 1457 1455 1452 1450 1448 1446 1444 1442 1439 1437 1435 1432
1496 1497 1496 1497 1496 1493 1492 1491 1491 1491 1490 1489 1489 1488 1487 1485 1483 1482 1481 1479 1478 1476 1474 1473 1471 1469 1467 1465 1463 1460 1458 1456 1454 1452 1449 1447 1445 1443 1441 1439 1436 1434 1432 1430
1494 1493 1494 1495 1491 1490 1490 1489 1489 1489 1488 1487 1486 1485 1484 1482 1480 1479 1478 1476 1475 1473 1471 1470 1468 1465 1464 1462 1460 1458 1456 1454 1451 1449 1446 1444 1442 1440 1438 1436 1434 1431 1429 1427
1492 1493 1493 1493 1490 1489 1487 1487 1487 1486 1485 1484 1483 1482 1481 1479 1477 1476 1475 1474 1472 1470 1469 1467 1465 1463 1461 1459 1457 1455 1453 1451 1449 1446 1444 1441 1439 1437 1435 1433 1431 1428 1427 1425
1490 1491 1491 1489 1487 1487 1486 1484 1484 1483 1482 1481 1480 1478 1477 1476 1475 1474 1472 1471 1469 1467 1466 1464 1462 1460 1458 1456 1454 1452 1450 1448 1445 1443 1441 1438 1436 1434 1431 1429 1427 1425 1424 1422